| time (UTC) | temp F | wind direction | speed MPH | gust MPH | rain 1hr in | rain 24hr in | rain mn in | humidity % | barometer mb |
| 20260502223459 | 65 | 265 | 3.0 | 7.0 | 0.00 | 0.00 | 0.00 | 38 | 1008.4 |
| 20260502222949 | 65 | 266 | 4.0 | 8.0 | 0.00 | 0.00 | 0.00 | 37 | 1008.5 |
| 20260502222435 | 65 | 282 | 4.0 | 8.0 | 0.00 | 0.00 | 0.00 | 37 | 1008.5 |
| 20260502221934 | 65 | 245 | 3.0 | 7.0 | 0.00 | 0.00 | 0.00 | 38 | 1008.6 |
| 20260502221431 | 65 | 252 | 4.0 | 10.0 | 0.00 | 0.00 | 0.00 | 38 | 1008.6 |
| 20260502220928 | 65 | 265 | 5.0 | 11.0 | 0.00 | 0.00 | 0.00 | 37 | 1008.5 |
| 20260502220422 | 65 | 249 | 5.0 | 13.0 | 0.00 | 0.00 | 0.00 | 37 | 1008.6 |
| 20260502215922 | 66 | 252 | 7.0 | 13.0 | 0.00 | 0.00 | 0.00 | 36 | 1008.6 |
| 20260502215419 | 66 | 235 | 7.0 | 13.0 | 0.00 | 0.00 | 0.00 | 36 | 1008.7 |
| 20260502215410 | 66 | 258 | 7.0 | 13.0 | 0.00 | 0.00 | 0.00 | 36 | 1008.7 |
| 20260502214637 | 66 | 282 | 5.0 | 13.0 | 0.00 | 0.00 | 0.00 | 37 | 1008.8 |
| 20260502213917 | 66 | 242 | 5.0 | 12.0 | 0.00 | 0.00 | 0.00 | 37 | 1008.8 |
| 20260502213418 | 66 | 275 | 6.0 | 12.0 | 0.00 | 0.00 | 0.00 | 36 | 1008.9 |
| 20260502212914 | 66 | 263 | 7.0 | 14.0 | 0.00 | 0.00 | 0.00 | 36 | 1009.0 |
| 20260502212411 | 66 | 272 | 7.0 | 14.0 | 0.00 | 0.00 | 0.00 | 37 | 1009.1 |
| 20260502212359 | 66 | 195 | 7.0 | 18.0 | 0.00 | 0.00 | 0.00 | 36 | 1009.2 |
| 20260502211411 | 67 | 293 | 8.0 | 18.0 | 0.00 | 0.00 | 0.00 | 35 | 1009.2 |
| 20260502210912 | 67 | 295 | 6.0 | 15.0 | 0.00 | 0.00 | 0.00 | 37 | 1009.3 |
| 20260502210633 | 67 | 261 | 5.0 | 15.0 | 0.00 | 0.00 | 0.00 | 35 | 1009.4 |
| 20260502205911 | 68 | 232 | 5.0 | 13.0 | 0.00 | 0.00 | 0.00 | 36 | 1009.4 |
| 20260502205637 | 68 | 211 | 6.0 | 13.0 | 0.00 | 0.00 | 0.00 | 35 | 1009.6 |
| 20260502204907 | 67 | 300 | 6.0 | 14.0 | 0.00 | 0.00 | 0.00 | 37 | 1009.6 |
| 20260502204634 | 67 | 298 | 6.0 | 14.0 | 0.00 | 0.00 | 0.00 | 37 | 1009.8 |
| 20260502203904 | 67 | 182 | 6.0 | 18.0 | 0.00 | 0.00 | 0.00 | 35 | 1010.0 |
| 20260502203402 | 67 | 249 | 7.0 | 18.0 | 0.00 | 0.00 | 0.00 | 37 | 1010.1 |
| 20260502203120 | 67 | 246 | 8.0 | 19.0 | 0.00 | 0.00 | 0.00 | 36 | 1010.2 |
| 20260502202357 | 67 | 197 | 8.0 | 19.0 | 0.00 | 0.00 | 0.00 | 36 | 1010.3 |
| 20260502201855 | 67 | 172 | 6.0 | 17.0 | 0.00 | 0.00 | 0.00 | 35 | 1010.4 |
| 20260502201354 | 66 | 255 | 6.0 | 14.0 | 0.00 | 0.00 | 0.00 | 38 | 1010.5 |
| 20260502201116 | 66 | 255 | 7.0 | 14.0 | 0.00 | 0.00 | 0.00 | 37 | 1010.5 |
| 20260502200348 | 65 | 304 | 8.0 | 16.0 | 0.00 | 0.00 | 0.00 | 39 | 1010.7 |
| 20260502195848 | 65 | 253 | 6.0 | 16.0 | 0.00 | 0.00 | 0.00 | 36 | 1010.8 |
| 20260502195349 | 65 | 258 | 6.0 | 15.0 | 0.00 | 0.00 | 0.00 | 38 | 1010.9 |
| 20260502194840 | 65 | 225 | 5.0 | 14.0 | 0.00 | 0.00 | 0.00 | 38 | 1010.9 |
| 20260502194341 | 65 | 294 | 5.0 | 11.0 | 0.00 | 0.00 | 0.00 | 37 | 1011.0 |
| 20260502193836 | 64 | 275 | 6.0 | 14.0 | 0.00 | 0.00 | 0.00 | 36 | 1011.1 |
| 20260502193554 | 64 | 117 | 6.0 | 14.0 | 0.00 | 0.00 | 0.00 | 37 | 1011.2 |
| 20260502192836 | 64 | 191 | 6.0 | 13.0 | 0.00 | 0.00 | 0.00 | 36 | 1011.5 |
| 20260502192334 | 64 | 213 | 6.0 | 13.0 | 0.00 | 0.00 | 0.00 | 37 | 1011.5 |
| 20260502191835 | 64 | 200 | 6.0 | 14.0 | 0.00 | 0.00 | 0.00 | 37 | 1011.7 |
| 20260502191331 | 63 | 206 | 6.0 | 14.0 | 0.00 | 0.00 | 0.00 | 40 | 1011.7 |
| 20260502190835 | 62 | 292 | 7.0 | 14.0 | 0.00 | 0.00 | 0.00 | 37 | 1011.8 |
| 20260502190323 | 62 | 293 | 6.0 | 14.0 | 0.00 | 0.00 | 0.00 | 39 | 1012.0 |
| 20260502185821 | 61 | 237 | 6.0 | 14.0 | 0.00 | 0.00 | 0.00 | 39 | 1012.0 |
| 20260502185544 | 62 | 262 | 7.0 | 17.0 | 0.00 | 0.00 | 0.00 | 37 | 1012.2 |
| 20260502185050 | 62 | 291 | 6.0 | 17.0 | 0.00 | 0.00 | 0.00 | 38 | 1012.3 |
| 20260502184318 | 62 | 220 | 5.0 | 15.0 | 0.00 | 0.00 | 0.00 | 39 | 1012.2 |
| 20260502183818 | 61 | 204 | 6.0 | 11.0 | 0.00 | 0.00 | 0.00 | 39 | 1012.4 |
| 20260502183415 | 61 | 275 | 6.0 | 13.0 | 0.00 | 0.00 | 0.00 | 38 | 1012.5 |
| 20260502182315 | 62 | 196 | 6.0 | 14.0 | 0.00 | 0.00 | 0.00 | 38 | 1012.7 |
| 20260502182040 | 61 | 152 | 6.0 | 13.0 | 0.00 | 0.00 | 0.00 | 39 | 1012.7 |
| 20260502181316 | 61 | 140 | 6.0 | 16.0 | 0.00 | 0.00 | 0.00 | 39 | 1012.8 |
| 20260502181038 | 61 | 228 | 6.0 | 16.0 | 0.00 | 0.00 | 0.00 | 37 | 1012.9 |
| 20260502180313 | 61 | 171 | 5.0 | 13.0 | 0.00 | 0.00 | 0.00 | 37 | 1013.0 |
| 20260502170259 | 59 | 292 | 6.0 | 14.0 | 0.00 | 0.00 | 0.00 | 40 | 1014.0 |
| 20260502164247 | 58 | 241 | 5.0 | 14.0 | 0.00 | 0.00 | 0.00 | 42 | 1014.3 |
| 20260502164238 | 57 | 246 | 6.0 | 14.0 | 0.00 | 0.00 | 0.00 | 42 | 1014.3 |
| 20260502163248 | 57 | 272 | 8.0 | 16.0 | 0.00 | 0.00 | 0.00 | 41 | 1014.4 |
| 20260502163227 | 57 | 281 | 6.0 | 16.0 | 0.00 | 0.00 | 0.00 | 40 | 1014.4 |
| 20260502162239 | 57 | 270 | 5.0 | 13.0 | 0.00 | 0.00 | 0.00 | 43 | 1014.4 |
| 20260502161740 | 57 | 279 | 5.0 | 13.0 | 0.00 | 0.00 | 0.00 | 43 | 1014.6 |
| 20260502161240 | 57 | 215 | 5.0 | 11.0 | 0.00 | 0.00 | 0.00 | 41 | 1014.5 |
| 20260502160740 | 56 | 196 | 5.0 | 11.0 | 0.00 | 0.00 | 0.00 | 42 | 1014.8 |
| 20260502160240 | 56 | 274 | 4.0 | 16.0 | 0.00 | 0.00 | 0.00 | 43 | 1014.8 |
| 20260502152152 | 54 | 295 | 5.0 | 13.0 | 0.00 | 0.00 | 0.00 | 49 | 1015.1 |
| 20260502151645 | 54 | 276 | 4.0 | 11.0 | 0.00 | 0.00 | 0.00 | 47 | 1015.3 |
| 20260502151135 | 53 | 282 | 4.0 | 11.0 | 0.00 | 0.00 | 0.00 | 49 | 1015.3 |
| 20260502150853 | 53 | 294 | 5.0 | 11.0 | 0.00 | 0.00 | 0.00 | 49 | 1015.4 |
| 20260502150408 | 53 | 284 | 5.0 | 12.0 | 0.00 | 0.00 | 0.00 | 50 | 1015.4 |
| 20260502130500 | 43 | 253 | 2.0 | 7.0 | 0.00 | 0.00 | 0.00 | 69 | 1016.0 |
| 20260502130223 | 42 | 243 | 1.0 | 5.0 | 0.00 | 0.00 | 0.00 | 71 | 1016.0 |
| 20260502123705 | 38 | 264 | 2.0 | 6.0 | 0.00 | 0.00 | 0.00 | 80 | 1016.0 |
| 20260502122942 | 38 | 260 | 2.0 | 6.0 | 0.00 | 0.00 | 0.00 | 81 | 1015.9 |
| 20260502122441 | 37 | 261 | 3.0 | 6.0 | 0.00 | 0.00 | 0.00 | 82 | 1016.0 |
| 20260502121935 | 37 | 263 | 3.0 | 6.0 | 0.00 | 0.00 | 0.00 | 83 | 1016.0 |
| 20260502121432 | 36 | 263 | 2.0 | 6.0 | 0.00 | 0.00 | 0.00 | 84 | 1015.9 |
| 20260502120933 | 35 | 259 | 2.0 | 6.0 | 0.00 | 0.00 | 0.00 | 84 | 1015.9 |
| 20260502120423 | 35 | 259 | 2.0 | 5.0 | 0.00 | 0.00 | 0.00 | 85 | 1015.9 |
| 20260502115923 | 34 | 274 | 2.0 | 5.0 | 0.00 | 0.00 | 0.00 | 85 | 1015.9 |
| 20260502115413 | 33 | 257 | 2.0 | 6.0 | 0.00 | 0.00 | 0.00 | 86 | 1016.0 |
| 20260502115129 | 33 | 257 | 2.0 | 6.0 | 0.00 | 0.00 | 0.00 | 86 | 1016.0 |
| 20260502114624 | 33 | 254 | 1.0 | 4.0 | 0.00 | 0.00 | 0.00 | 85 | 1015.9 |
| 20260502113903 | 32 | 254 | 1.0 | 4.0 | 0.00 | 0.00 | 0.00 | 85 | 1015.9 |
| 20260502113358 | 32 | 254 | 1.0 | 4.0 | 0.00 | 0.00 | 0.00 | 85 | 1015.9 |
| 20260502112851 | 32 | 254 | 1.0 | 4.0 | 0.00 | 0.00 | 0.00 | 85 | 1015.9 |
| 20260502112550 | 32 | 254 | 0.0 | 2.0 | 0.00 | 0.00 | 0.00 | 85 | 1015.8 |
| 20260502111824 | 32 | 254 | 0.0 | 2.0 | 0.00 | 0.00 | 0.00 | 85 | 1015.8 |
| 20260502111309 | 32 | 254 | 0.0 | 2.0 | 0.00 | 0.00 | 0.00 | 85 | 1015.8 |
| 20260502110808 | 31 | 254 | 0.0 | 2.0 | 0.00 | 0.00 | 0.00 | 85 | 1015.7 |
| 20260502110302 | 31 | 254 | 0.0 | 1.0 | 0.00 | 0.00 | 0.00 | 85 | 1015.8 |
| 20260502105742 | 31 | 254 | 0.0 | 1.0 | 0.00 | 0.00 | 0.00 | 85 | 1015.7 |
| 20260502105244 | 31 | 254 | 0.0 | 1.0 | 0.00 | 0.00 | 0.00 | 85 | 1015.8 |
| 20260502104942 | 31 | 254 | 0.0 | 0.0 | 0.00 | 0.00 | 0.00 | 84 | 1015.7 |
| 20260502104201 | 31 | 254 | 0.0 | 0.0 | 0.00 | 0.00 | 0.00 | 84 | 1015.7 |
| 20260502103640 | 31 | 254 | 0.0 | 0.0 | 0.00 | 0.00 | 0.00 | 84 | 1015.7 |
| 20260502103134 | 31 | 254 | 0.0 | 0.0 | 0.00 | 0.00 | 0.00 | 84 | 1015.7 |
| 20260502102605 | 31 | 254 | 0.0 | 0.0 | 0.00 | 0.00 | 0.00 | 84 | 1015.7 |
| 20260502102102 | 31 | 254 | 0.0 | 0.0 | 0.00 | 0.00 | 0.00 | 84 | 1015.7 |
| 20260502101553 | 31 | 254 | 0.0 | 0.0 | 0.00 | 0.00 | 0.00 | 84 | 1015.7 |
| 20260502101035 | 32 | 254 | 0.0 | 0.0 | 0.00 | 0.00 | 0.00 | 84 | 1015.8 |
| 20260502100537 | 32 | 254 | 0.0 | 0.0 | 0.00 | 0.00 | 0.00 | 84 | 1015.7 |
| 20260502091356 | 32 | 254 | 0.0 | 0.0 | 0.00 | 0.00 | 0.00 | 82 | 1015.6 |
| 20260502091343 | 33 | 254 | 0.0 | 0.0 | 0.00 | 0.00 | 0.00 | 82 | 1015.5 |
| 20260502090558 | 33 | 254 | 0.0 | 0.0 | 0.00 | 0.00 | 0.00 | 81 | 1015.5 |
| 20260502071424 | 35 | 254 | 0.0 | 0.0 | 0.00 | 0.00 | 0.00 | 76 | 1015.7 |
| 20260502071139 | 35 | 254 | 0.0 | 0.0 | 0.00 | 0.00 | 0.00 | 76 | 1015.7 |
| 20260502070417 | 35 | 254 | 0.0 | 0.0 | 0.00 | 0.00 | 0.00 | 76 | 1015.8 |
| 20260502065910 | 35 | 254 | 0.0 | 0.0 | 0.00 | 0.00 | 0.00 | 76 | 1015.8 |
| 20260502065406 | 36 | 254 | 0.0 | 0.0 | 0.00 | 0.00 | 0.00 | 75 | 1015.8 |
| 20260502064901 | 36 | 254 | 0.0 | 0.0 | 0.00 | 0.00 | 0.00 | 75 | 1015.8 |
| 20260502064359 | 36 | 254 | 0.0 | 0.0 | 0.00 | 0.00 | 0.00 | 75 | 1015.8 |
| 20260502063830 | 36 | 254 | 0.0 | 0.0 | 0.00 | 0.00 | 0.00 | 75 | 1015.9 |
| 20260502063316 | 37 | 254 | 0.0 | 0.0 | 0.00 | 0.00 | 0.00 | 75 | 1015.9 |
| 20260502062814 | 37 | 254 | 0.0 | 0.0 | 0.00 | 0.00 | 0.00 | 74 | 1015.9 |
| 20260502062311 | 37 | 254 | 0.0 | 0.0 | 0.00 | 0.00 | 0.00 | 74 | 1015.9 |
| 20260502062027 | 37 | 254 | 0.0 | 0.0 | 0.00 | 0.00 | 0.00 | 74 | 1015.9 |
| 20260502061749 | 37 | 254 | 0.0 | 0.0 | 0.00 | 0.00 | 0.00 | 73 | 1015.9 |
| 20260502060751 | 38 | 254 | 0.0 | 0.0 | 0.00 | 0.00 | 0.00 | 73 | 1015.9 |
| 20260502060242 | 38 | 254 | 0.0 | 0.0 | 0.00 | 0.00 | 0.00 | 74 | 1015.9 |
| 20260502055951 | 38 | 254 | 0.0 | 0.0 | 0.00 | 0.00 | 0.00 | 74 | 1015.9 |
| 20260502055214 | 38 | 254 | 0.0 | 0.0 | 0.00 | 0.00 | 0.00 | 75 | 1015.9 |
| 20260502054934 | 38 | 254 | 0.0 | 0.0 | 0.00 | 0.00 | 0.00 | 75 | 1015.9 |
| 20260502054204 | 38 | 254 | 0.0 | 0.0 | 0.00 | 0.00 | 0.00 | 74 | 1016.0 |
| 20260502053700 | 38 | 254 | 0.0 | 0.0 | 0.00 | 0.00 | 0.00 | 74 | 1016.0 |
| 20260502053148 | 38 | 254 | 0.0 | 0.0 | 0.00 | 0.00 | 0.00 | 73 | 1016.0 |
| 20260502052642 | 38 | 254 | 0.0 | 0.0 | 0.00 | 0.00 | 0.00 | 72 | 1016.0 |
| 20260502052139 | 38 | 254 | 0.0 | 0.0 | 0.00 | 0.00 | 0.00 | 72 | 1016.0 |
| 20260502051633 | 38 | 254 | 0.0 | 0.0 | 0.00 | 0.00 | 0.00 | 71 | 1016.0 |
| 20260502051131 | 38 | 254 | 0.0 | 1.0 | 0.00 | 0.00 | 0.00 | 71 | 1016.0 |
| 20260502050619 | 38 | 254 | 0.0 | 1.0 | 0.00 | 0.00 | 0.00 | 71 | 1016.0 |
| 20260502045533 | 38 | 254 | 0.0 | 0.0 | 0.00 | 0.00 | 0.00 | 71 | 1016.0 |
| 20260502045037 | 38 | 254 | 0.0 | 0.0 | 0.00 | 0.00 | 0.00 | 70 | 1016.0 |
| 20260502044537 | 39 | 254 | 0.0 | 0.0 | 0.00 | 0.00 | 0.00 | 70 | 1016.0 |
| 20260502044027 | 39 | 254 | 0.0 | 0.0 | 0.00 | 0.00 | 0.00 | 69 | 1015.9 |
| 20260502043516 | 39 | 254 | 0.0 | 0.0 | 0.00 | 0.00 | 0.00 | 69 | 1016.0 |
| 20260502043018 | 39 | 254 | 0.0 | 0.0 | 0.00 | 0.00 | 0.00 | 69 | 1016.0 |
| 20260502042512 | 40 | 254 | 0.0 | 0.0 | 0.00 | 0.00 | 0.00 | 68 | 1016.0 |
| 20260502042235 | 40 | 254 | 0.0 | 0.0 | 0.00 | 0.00 | 0.00 | 68 | 1015.9 |
| 20260502041510 | 40 | 254 | 0.0 | 0.0 | 0.00 | 0.00 | 0.00 | 67 | 1016.0 |
| 20260502041232 | 40 | 254 | 0.0 | 0.0 | 0.00 | 0.00 | 0.00 | 66 | 1015.9 |
| 20260502040729 | 41 | 254 | 0.0 | 0.0 | 0.00 | 0.00 | 0.00 | 66 | 1016.0 |
| 20260502040006 | 41 | 254 | 0.0 | 0.0 | 0.00 | 0.00 | 0.00 | 66 | 1016.0 |
| 20260502035502 | 41 | 254 | 0.0 | 0.0 | 0.00 | 0.00 | 0.00 | 65 | 1016.0 |
| 20260502034959 | 41 | 254 | 0.0 | 0.0 | 0.00 | 0.00 | 0.00 | 65 | 1016.0 |
| 20260502034456 | 42 | 254 | 0.0 | 0.0 | 0.00 | 0.00 | 0.00 | 64 | 1016.0 |
| 20260502033920 | 42 | 254 | 0.0 | 0.0 | 0.00 | 0.00 | 0.00 | 64 | 1016.0 |
| 20260502033623 | 42 | 254 | 0.0 | 0.0 | 0.00 | 0.00 | 0.00 | 63 | 1016.0 |
| 20260502032848 | 42 | 254 | 0.0 | 0.0 | 0.00 | 0.00 | 0.00 | 62 | 1016.0 |
| 20260502032341 | 42 | 254 | 0.0 | 0.0 | 0.00 | 0.00 | 0.00 | 62 | 1016.0 |
| 20260502031833 | 43 | 254 | 0.0 | 0.0 | 0.00 | 0.00 | 0.00 | 60 | 1016.0 |
| 20260502031327 | 43 | 254 | 0.0 | 0.0 | 0.00 | 0.00 | 0.00 | 60 | 1016.0 |
| 20260502030823 | 43 | 254 | 0.0 | 0.0 | 0.00 | 0.00 | 0.00 | 58 | 1016.0 |
| 20260502030306 | 43 | 254 | 0.0 | 0.0 | 0.00 | 0.00 | 0.00 | 57 | 1016.0 |
| 20260502030011 | 44 | 254 | 0.0 | 0.0 | 0.00 | 0.00 | 0.00 | 57 | 1016.0 |
| 20260502025246 | 44 | 254 | 0.0 | 0.0 | 0.00 | 0.00 | 0.00 | 57 | 1016.0 |
| 20260502024736 | 44 | 254 | 0.0 | 0.0 | 0.00 | 0.00 | 0.00 | 57 | 1016.0 |
| 20260502024451 | 44 | 254 | 0.0 | 0.0 | 0.00 | 0.00 | 0.00 | 56 | 1016.1 |
| 20260502023726 | 45 | 254 | 0.0 | 0.0 | 0.00 | 0.00 | 0.00 | 56 | 1016.0 |
| 20260502023210 | 45 | 254 | 0.0 | 0.0 | 0.00 | 0.00 | 0.00 | 54 | 1016.0 |
| 20260502022707 | 45 | 254 | 0.0 | 1.0 | 0.00 | 0.00 | 0.00 | 53 | 1016.0 |
| 20260502022150 | 46 | 254 | 0.0 | 1.0 | 0.00 | 0.00 | 0.00 | 51 | 1015.9 |
| 20260502022125 | 46 | 254 | 0.0 | 0.0 | 0.00 | 0.00 | 0.00 | 50 | 1015.9 |
| 20260502021143 | 47 | 254 | 0.0 | 0.0 | 0.00 | 0.00 | 0.00 | 51 | 1015.8 |
| 20260502020643 | 47 | 254 | 0.0 | 0.0 | 0.00 | 0.00 | 0.00 | 50 | 1015.8 |
| 20260502020359 | 48 | 254 | 0.0 | 0.0 | 0.00 | 0.00 | 0.00 | 48 | 1015.7 |
| 20260502015616 | 49 | 254 | 0.0 | 0.0 | 0.00 | 0.00 | 0.00 | 46 | 1015.7 |
| 20260502015038 | 49 | 254 | 0.0 | 0.0 | 0.00 | 0.00 | 0.00 | 45 | 1015.6 |
| 20260502014522 | 50 | 254 | 0.0 | 0.0 | 0.00 | 0.00 | 0.00 | 45 | 1015.5 |
| 20260502014002 | 50 | 254 | 0.0 | 1.0 | 0.00 | 0.00 | 0.00 | 45 | 1015.5 |
| 20260502013459 | 51 | 254 | 0.0 | 3.0 | 0.00 | 0.00 | 0.00 | 44 | 1015.4 |
| 20260502012954 | 51 | 254 | 0.0 | 3.0 | 0.00 | 0.00 | 0.00 | 42 | 1015.4 |
| 20260502012716 | 51 | 254 | 1.0 | 3.0 | 0.00 | 0.00 | 0.00 | 40 | 1015.4 |
| 20260502011950 | 52 | 254 | 1.0 | 3.0 | 0.00 | 0.00 | 0.00 | 39 | 1015.4 |
| 20260502011444 | 52 | 254 | 1.0 | 4.0 | 0.00 | 0.00 | 0.00 | 38 | 1015.4 |
| 20260502010945 | 52 | 254 | 1.0 | 4.0 | 0.00 | 0.00 | 0.00 | 38 | 1015.4 |
| 20260502010440 | 52 | 246 | 2.0 | 5.0 | 0.00 | 0.00 | 0.00 | 37 | 1015.3 |
| 20260502005939 | 53 | 313 | 2.0 | 6.0 | 0.00 | 0.00 | 0.00 | 36 | 1015.4 |
| 20260502005422 | 53 | 321 | 2.0 | 6.0 | 0.00 | 0.00 | 0.00 | 36 | 1015.3 |
| 20260502004921 | 53 | 345 | 2.0 | 5.0 | 0.00 | 0.00 | 0.00 | 36 | 1015.3 |
| 20260502004644 | 53 | 355 | 2.0 | 6.0 | 0.00 | 0.00 | 0.00 | 37 | 1015.3 |
| 20260502003912 | 53 | 307 | 2.0 | 6.0 | 0.00 | 0.00 | 0.00 | 35 | 1015.1 |
| 20260502003413 | 53 | 321 | 2.0 | 6.0 | 0.00 | 0.00 | 0.00 | 35 | 1015.3 |
| 20260502002912 | 53 | 317 | 2.0 | 5.0 | 0.00 | 0.00 | 0.00 | 36 | 1015.3 |
| 20260502002636 | 53 | 328 | 2.0 | 8.0 | 0.00 | 0.00 | 0.00 | 35 | 1015.3 |
| 20260502002132 | 53 | 310 | 3.0 | 8.0 | 0.00 | 0.00 | 0.00 | 35 | 1015.4 |
| 20260502001404 | 53 | 303 | 2.0 | 7.0 | 0.00 | 0.00 | 0.00 | 35 | 1015.3 |
| 20260502001128 | 53 | 283 | 2.0 | 7.0 | 0.00 | 0.00 | 0.00 | 36 | 1015.3 |
| 20260502000402 | 54 | 296 | 2.0 | 6.0 | 0.00 | 0.00 | 0.00 | 35 | 1015.4 |
| 20260501235900 | 54 | 318 | 2.0 | 8.0 | 0.00 | 0.00 | 0.00 | 35 | 1015.3 |
| 20260501235355 | 54 | 263 | 3.0 | 9.0 | 0.00 | 0.00 | 0.00 | 35 | 1015.3 |
| 20260501234853 | 54 | 310 | 2.0 | 9.0 | 0.00 | 0.00 | 0.00 | 34 | 1015.3 |
| 20260501234351 | 54 | 292 | 3.0 | 9.0 | 0.00 | 0.00 | 0.00 | 35 | 1015.4 |
| 20260501233848 | 54 | 316 | 3.0 | 9.0 | 0.00 | 0.00 | 0.00 | 37 | 1015.4 |
| 20260501233607 | 54 | 299 | 3.0 | 8.0 | 0.00 | 0.00 | 0.00 | 34 | 1015.4 |
| 20260501232848 | 55 | 0 | 3.0 | 11.0 | 0.00 | 0.00 | 0.00 | 36 | 1015.4 |
| 20260501232341 | 55 | 336 | 4.0 | 11.0 | 0.00 | 0.00 | 0.00 | 35 | 1015.4 |
| 20260501231842 | 56 | 298 | 4.0 | 11.0 | 0.00 | 0.00 | 0.00 | 33 | 1015.3 |
| 20260501231336 | 57 | 309 | 4.0 | 11.0 | 0.00 | 0.00 | 0.00 | 32 | 1015.3 |
| 20260501230834 | 57 | 5 | 4.0 | 9.0 | 0.00 | 0.00 | 0.00 | 32 | 1015.3 |
| 20260501230327 | 57 | 355 | 3.0 | 6.0 | 0.00 | 0.00 | 0.00 | 31 | 1015.3 |
| 20260501225823 | 56 | 5 | 3.0 | 7.0 | 0.00 | 0.00 | 0.00 | 37 | 1015.4 |
| 20260501225325 | 55 | 334 | 3.0 | 8.0 | 0.00 | 0.00 | 0.00 | 39 | 1015.4 |
| 20260501224825 | 55 | 13 | 3.0 | 8.0 | 0.00 | 0.00 | 0.00 | 34 | 1015.4 |
| 20260501224322 | 54 | 64 | 3.0 | 6.0 | 0.00 | 0.00 | 0.00 | 35 | 1015.5 |
| 20260501223823 | 54 | 5 | 3.0 | 6.0 | 0.00 | 0.00 | 0.00 | 34 | 1015.4 |